User: anonymous   Login
Location: *
(37.5724°S, 58.0067°E)
Time: 08:30:55
(UTC+00:00)
Language:

Cosmos 2242 Rocket - Orbit

View from above orbital plane
View from above orbital plane
View from above satellite
View from above satellite

Ground track
Ground track

The orbit data is extracted from the following two-line orbital elements,

1 22627U 93024B   20329.87746165 +.00000107 +00000-0 +11473-4 0  9995
2 22627 082.5236 013.0531 0023542 177.9656 182.1656 14.78187029487798
Epoch (UTC): 24 November 2020 21:03:32
Eccentricity: 0.0023542
inclination: 82.5236°
perigee height: 618 km
apogee height: 651 km
right ascension of ascending node: 13.0531°
argument of perigee: 177.9656°
revolutions per day: 14.78187029
mean anomaly at epoch: 182.1656°
orbit number at epoch: 48779

The dashed part of the orbit path shows where the satellite is in the earth's shadow,  

DLR